Wind_Speed
67 63 56 54 49 39 32 25 22 22 19 22 26 23 18 19 21 20 17 23 28 36 40 42 43 41 40 39 41 42 42 41
74 62 56 49 45 35 33 30 28 33 37 37 37 34 33 30 24 25 15 14 20 17 20 22 21 20 21 24 23 25 28 30
60 53 50 41 40 37 38 34 37 42 47 48 42 38 38 37 34 30 32 27 24 12 11 14 16 15 16 15 13 14 17 20
56 47 36 35 37 38 38 37 37 38 57 56 48 47 44 35 33 32 31 28 27 21 23 16 15 13 14 18 13 13 9 13
48 37 31 33 35 37 35 34 41 44 45 55 51 55 54 46 36 32 33 30 31 29 26 24 19 17 10 11 10 12 14 17
42 30 31 32 35 34 33 31 35 36 44 48 56 51 54 47 48 38 36 42 41 34 33 28 28 17 17 22 16 19 18 18
37 30 31 34 34 32 32 28 28 33 39 44 52 55 57 54 49 47 46 44 42 34 31 31 27 22 28 23 22 29 26 14
36 31 32 33 33 31 31 28 26 29 36 36 53 53 62 64 54 51 51 50 47 38 37 27 27 26 22 24 21 14 12 11
36 31 31 32 31 30 31 26 27 30 33 33 46 54 61 65 61 55 51 52 51 45 43 30 30 27 27 22 21 14 10 9
36 29 30 28 28 29 31 28 30 29 31 32 42 45 62 64 62 55 52 48 41 32 32 32 34 34 32 26 20 27 20 17
32 27 25 24 25 29 31 29 28 30 31 31 38 40 52 64 64 61 46 51 49 45 36 36 36 33 30 22 19 21 26 22
29 24 22 22 24 27 27 23 27 28 28 26 29 37 43 48 66 59 48 50 47 46 44 41 37 34 28 27 29 25 22 26
24 21 18 17 20 24 21 21 20 23 26 24 31 35 43 38 44 59 56 51 52 52 47 40 38 35 38 36 36 32 37 33
23 18 15 14 17 17 16 20 17 25 25 27 26 23 33 31 37 46 47 51 53 49 49 44 41 38 41 38 34 40 34 32
23 19 18 13 12 14 14 17 17 27 30 26 23 26 29 33 35 41 44 47 47 49 49 46 47 49 45 47 49 46 45 44
24 20 17 15 11 12 9 10 14 30 34 33 35 27 30 33 37 37 38 40 42 43 44 48 49 50 46 43 47 46 45 50
24 20 17 13 9 7 5 6 11 31 34 35 31 26 29 36 37 36 39 42 41 41 44 50 49 49 49 47 46 48 50 48
28 22 17 15 10 5 2 5 10 21 28 34 32 30 27 27 26 35 41 42 43 43 46 47 48 44 47 44 44 47 47 47
30 26 20 19 16 10 5 4 4 20 24 32 33 31 33 36 36 38 39 41 43 46 48 49 49 49 50 49 50 50 51 51
32 30 25 22 21 16 10 5 8 8 23 26 28 30 34 32 33 34 44 55 55 53 53 56 55 52 52 49 46 49 48 47
Wind_Direction
279 283 284 280 275 261 245 239 237 240 227 201 217 223 237 243 245 251 224 228 233 238 246 250 253 259 262 260 257 261 264 262
281 278 274 273 270 250 243 221 223 210 204 204 212 212 225 224 222 241 204 233 242 239 246 252 242 234 249 252 254 258 257 258
269 265 263 267 259 244 240 226 217 215 211 212 222 222 223 228 228 219 215 216 213 212 217 200 194 204 230 249 259 267 267 264
261 257 259 256 249 245 244 224 221 219 214 216 228 230 221 225 223 224 210 209 212 205 209 215 216 225 241 252 265 263 271 268
253 252 250 246 248 250 250 228 223 232 229 228 227 233 232 221 224 228 223 211 202 205 218 224 214 209 223 245 232 246 295 298
247 243 242 245 247 250 253 248 243 244 237 233 227 227 228 224 224 220 229 228 230 215 217 234 229 236 241 241 246 262 282 302
238 233 240 244 250 246 250 263 258 249 240 235 226 228 223 216 223 224 224 236 226 220 228 230 234 249 252 254 260 264 272 282
235 226 236 244 247 247 256 270 266 257 244 247 229 223 219 219 220 222 226 233 234 225 230 231 245 238 233 249 270 266 257 256
231 224 237 244 245 251 263 273 270 260 248 250 228 222 219 221 222 222 226 234 234 238 243 236 222 223 228 252 259 271 275 277
223 226 239 244 248 262 274 276 274 257 253 249 232 229 219 220 223 222 225 226 228 227 219 216 217 225 246 280 275 248 268 274
218 227 241 244 261 272 276 280 267 253 252 238 231 231 220 221 219 222 225 226 229 231 223 232 232 244 268 263 234 247 270 270
216 228 230 250 264 273 281 275 269 253 237 228 230 218 212 220 219 223 225 224 226 230 235 235 237 251 251 254 256 255 268 273
214 212 233 251 264 277 277 276 260 232 216 212 216 213 212 213 218 223 231 233 230 233 238 235 244 245 258 259 259 254 266 276
202 212 228 248 273 271 276 273 240 207 210 205 208 206 203 205 211 215 223 228 236 234 243 243 239 254 257 261 248 261 275 262
199 214 217 244 276 278 283 266 221 196 205 207 201 195 193 202 203 212 220 228 235 244 246 244 253 256 258 265 256 268 275 272
206 203 215 236 273 267 298 279 217 199 201 204 208 191 194 195 201 205 216 226 232 239 245 247 251 258 258 255 262 271 267 275
199 202 211 225 257 263 310 316 209 200 200 207 206 208 209 200 203 212 217 226 230 237 240 244 252 255 260 266 266 264 266 264
193 198 204 217 232 252 227 47 191 198 204 202 218 224 220 217 222 225 227 231 233 240 241 248 251 251 260 258 259 262 264 263
199 195 205 214 221 235 229 185 154 190 197 199 204 207 208 224 230 237 236 236 238 242 240 241 247 251 254 260 261 259 262 261
205 199 208 217 218 218 221 184 161 160 200 205 207 208 216 223 229 236 234 236 239 241 243 246 247 253 256 260 261 261 263 266
Height
10698 10701 10704 10708 10710 10712 10716 10719 10723 10724 10728 10732 10730 10734 10732 10731 10728 10726 10725 10728 10730 10732 10736 10739 10743 10748 10751 10752 10753 10755 10757 10758
10684 10688 10690 10695 10700 10701 10702 10709 10714 10716 10719 10719 10719 10721 10720 10722 10720 10721 10723 10726 10726 10730 10732 10734 10738 10742 10745 10748 10749 10749 10750 10752
10666 10672 10676 10682 10688 10690 10692 10696 10701 10705 10706 10706 10710 10712 10712 10715 10715 10714 10716 10719 10723 10727 10729 10730 10733 10737 10741 10743 10744 10745 10746 10747
10653 10659 10665 10672 10677 10678 10681 10687 10690 10692 10694 10697 10701 10703 10706 10708 10709 10709 10709 10716 10717 10723 10726 10727 10730 10733 10738 10740 10740 10742 10742 10743
10643 10650 10654 10662 10666 10667 10670 10675 10679 10680 10682 10685 10691 10693 10697 10700 10702 10702 10706 10709 10715 10718 10722 10723 10726 10728 10732 10736 10736 10737 10738 10738
10636 10641 10647 10652 10658 10659 10661 10665 10667 10667 10670 10675 10680 10682 10686 10690 10693 10697 10701 10704 10709 10713 10716 10718 10721 10725 10728 10731 10732 10733 10734 10732
10628 10633 10639 10644 10649 10651 10653 10655 10655 10657 10659 10663 10668 10672 10674 10681 10684 10690 10696 10698 10702 10709 10711 10714 10718 10721 10723 10725 10728 10729 10729 10729
10622 10626 10632 10637 10640 10643 10644 10645 10647 10647 10649 10652 10656 10662 10666 10670 10676 10682 10688 10691 10697 10700 10705 10711 10712 10714 10718 10721 10723 10723 10723 10724
10616 10620 10626 10629 10632 10634 10635 10635 10636 10636 10638 10642 10646 10652 10656 10662 10668 10675 10681 10684 10689 10695 10700 10704 10706 10708 10712 10714 10717 10717 10718 10718
10609 10614 10618 10621 10625 10625 10625 10625 10625 10626 10629 10631 10635 10640 10649 10656 10661 10669 10675 10678 10683 10689 10692 10697 10700 10702 10707 10709 10711 10713 10714 10715
10604 10608 10612 10614 10616 10617 10617 10617 10616 10618 10620 10622 10626 10632 10639 10646 10653 10662 10667 10673 10677 10681 10687 10691 10695 10698 10701 10702 10704 10707 10709 10710
10598 10603 10606 10609 10610 10609 10609 10608 10607 10609 10611 10615 10619 10624 10630 10638 10647 10654 10662 10667 10670 10675 10680 10686 10689 10692 10694 10696 10699 10700 10702 10702
10591 10597 10601 10603 10603 10603 10603 10601 10599 10600 10604 10609 10614 10618 10623 10631 10639 10648 10656 10660 10663 10670 10674 10679 10681 10684 10687 10688 10690 10692 10693 10694
10586 10591 10594 10598 10597 10597 10597 10595 10594 10596 10599 10605 10609 10613 10618 10626 10634 10641 10647 10651 10657 10662 10666 10671 10673 10677 10679 10682 10681 10682 10684 10684
10581 10585 10589 10592 10592 10592 10591 10590 10589 10592 10595 10601 10604 10609 10614 10621 10629 10636 10642 10646 10650 10655 10659 10662 10665 10669 10671 10671 10671 10672 10673 10674
10576 10580 10585 10588 10588 10588 10588 10585 10585 10588 10592 10597 10599 10606 10610 10618 10624 10631 10636 10640 10644 10647 10651 10653 10656 10659 10661 10660 10663 10661 10663 10663
10570 10575 10580 10583 10584 10584 10584 10581 10582 10586 10589 10595 10598 10603 10609 10613 10618 10624 10629 10633 10636 10640 10643 10643 10646 10649 10650 10652 10653 10653 10652 10652
10565 10571 10576 10579 10580 10581 10581 10579 10579 10582 10587 10591 10595 10600 10604 10609 10613 10617 10622 10626 10629 10631 10634 10635 10636 10637 10640 10641 10641 10642 10642 10643
10560 10566 10571 10573 10575 10576 10578 10577 10577 10577 10582 10587 10592 10595 10600 10603 10606 10610 10614 10616 10620 10623 10625 10626 10627 10628 10629 10630 10631 10631 10630 10630
10555 10559 10564 10567 10570 10572 10575 10575 10576 10576 10577 10581 10585 10590 10594 10598 10602 10603 10604 10607 10610 10613 10615 10616 10617 10618 10619 10620 10620 10619 10618 10618